Overview Statistics Trail Chart Weather Telemetry Raw packets
 

This is the latest recevied weather packets stored in our database for station/object K7CTM. If no packets are shown the sender has not sent any weather packets the latest 10 day(s).

<< 110 111 112 113 114 >>
Time Temp. Humidity Pressure Rain* Wind** Luminosity Snow
1787779347 32.22° C 25% 1029.9 hPa 0 mm - 429 W/m² -
1787779042 32.78° C 24% 1030.2 hPa 0 mm - 598 W/m² -
1787778737 31.67° C 26% 1030.3 hPa 0 mm - 594 W/m² -
1787778433 32.78° C 24% 1030.2 hPa 0 mm - 631 W/m² -
1787778128 31.67° C 24% 1030.4 hPa 0 mm - 623 W/m² -
1787777827 31.67° C 24% 1030.4 hPa 0 mm - 628 W/m² -
1787777519 30.56° C 24% 1030.5 hPa 0 mm - 637 W/m² -
1787777218 31.11° C 23% 1030.5 hPa 0 mm - 636 W/m² -
1787776918 31.11° C 24% 1030.7 hPa 0 mm - 642 W/m² -
1787776617 31.11° C 25% 1030.8 hPa 0 mm - 650 W/m² -
1787776316 30.56° C 26% 1030.8 hPa 0 mm - 634 W/m² -
1787776014 31.67° C 27% 1031 hPa 0 mm - 636 W/m² -
1787775710 31.11° C 27% 1030.8 hPa 0 mm - 633 W/m² -
1787775408 30.56° C 28% 1031.3 hPa 0 mm - 646 W/m² -
1787775107 30.56° C 29% 1031.1 hPa 0 mm - 649 W/m² -
1787774802 30.56° C 28% 1031.2 hPa 0 mm - 658 W/m² -
1787774502 30.56° C 28% 1031.3 hPa 0 mm - 684 W/m² -
1787774201 30° C 29% 1031.3 hPa 0 mm - 688 W/m² -
1787773899 30° C 29% 1031.4 hPa 0 mm - 688 W/m² -
1787773593 30.56° C 28% 1031.5 hPa 0 mm - 688 W/m² -
1787773290 30.56° C 28% 1031.5 hPa 0 mm - 688 W/m² -
1787772990 30° C 30% 1031.4 hPa 0 mm - 688 W/m² -
1787772685 30° C 29% 1031.7 hPa 0 mm - 708 W/m² -
1787772384 29.44° C 31% 1031.6 hPa 0 mm - 662 W/m² -
1787772084 28.89° C 31% 1031.9 hPa 0 mm - 689 W/m² -

* Rain latest hour (hover to see other rain measurements)
** Current wind speed in m/s (hover to see current wind gust speed)